EDT,Max TemperatureF,Mean TemperatureF,Min TemperatureF,Max Dew PointF,MeanDew PointF,Min DewpointF,Max Humidity, Mean Humidity, Min Humidity, Max Sea Level PressureIn, Mean Sea Level PressureIn, Min Sea Level PressureIn, Max VisibilityMiles, Mean VisibilityMiles, Min VisibilityMiles, Max Wind SpeedMPH, Mean Wind SpeedMPH, Max Gust SpeedMPH,PrecipitationIn, CloudCover, Events, WindDirDegrees
2012-8-1,89,80,70,75,72,69,94,75,55,29.92,29.89,29.83,10,7,1,13,2,15,0.54,6,Rain-Thunderstorm,227
2012-8-2,93,82,71,76,72,66,100,76,52,29.98,29.92,29.86,10,6,1,17,5,23,0.35,2,Rain-Thunderstorm,184
2012-8-3,90,80,70,74,71,68,100,80,59,30.08,30.01,29.94,10,10,7,22,5,30,0.00,1,,182
2012-8-4,92,82,71,76,72,70,100,75,49,30.21,30.13,30.08,10,8,2,21,4,25,0.00,1,,151
2012-8-5,88,81,73,77,73,72,100,85,70,30.24,30.19,30.14,10,8,1,20,3,28,0.28,3,Rain-Thunderstorm,183
2012-8-6,89,81,72,77,74,72,100,80,59,30.15,30.09,30.03,10,8,1,5,3,7,0.28,4,Rain-Thunderstorm,223
2012-8-7,84,79,74,77,74,73,100,85,70,30.06,30.02,29.98,10,9,2,10,2,13,0.16,5,Rain-Thunderstorm,237
2012-8-8,86,78,69,76,73,66,100,81,61,30.03,30.00,29.94,10,8,2,25,3,33,0.43,5,Rain-Thunderstorm,243
2012-8-9,88,78,67,78,71,67,100,80,59,30.02,29.95,29.87,10,10,8,8,2,14,0.00,0,,214
2012-8-10,84,79,73,75,73,71,100,87,74,29.91,29.88,29.85,10,8,1,20,7,30,0.39,5,Rain-Thunderstorm,218
2012-8-11,88,79,70,75,73,70,100,84,68,29.96,29.91,29.88,10,10,7,16,5,25,0.03,3,Rain-Thunderstorm,201
2012-8-12,86,79,71,75,72,70,100,83,65,30.01,29.97,29.94,10,10,7,10,2,13,0.01,5,Rain-Thunderstorm,183
2012-8-13,89,80,71,75,72,64,100,72,44,30.05,30.00,29.94,10,6,0,10,2,14,0.00,4,Fog,244
2012-8-14,91,79,67,75,70,66,100,75,50,29.97,29.93,29.87,10,8,2,15,5,17,0.04,1,Rain-Thunderstorm,212
2012-8-15,91,82,73,74,73,70,94,76,57,29.94,29.91,29.87,10,9,6,14,5,20,0.00,1,,230
2012-8-16,91,79,67,72,68,63,100,72,43,30.02,29.97,29.93,10,9,5,8,2,15,0.00,0,,278
2012-8-17,93,80,67,72,69,66,100,72,44,29.99,29.90,29.83,10,8,3,14,4,18,0.00,1,,227
2012-8-18,91,80,69,73,70,66,100,74,47,29.90,29.86,29.80,10,9,5,8,2,10,0.00,1,,320
2012-8-19,81,77,72,75,72,68,100,85,69,29.89,29.86,29.82,10,6,0,20,3,28,0.43,5,Fog-Rain-Thunderstorm,241
2012-8-20,84,78,71,73,71,68,100,82,63,29.96,29.88,29.83,10,6,1,10,3,13,1.72,7,Rain,16
2012-8-21,83,78,72,72,71,69,100,83,65,30.06,30.00,29.94,10,9,5,9,2,12,0.02,3,Rain,117
2012-8-22,86,78,70,72,71,67,100,78,55,30.09,30.06,30.02,10,7,0,24,4,28,1.77,6,Fog-Rain-Thunderstorm,53
2012-8-23,83,77,70,74,70,69,100,83,65,30.12,30.09,30.06,10,9,6,17,6,23,0.06,6,Rain,46
2012-8-24,74,71,67,72,68,64,100,90,79,30.12,30.10,30.07,10,7,2,16,6,23,0.50,6,Rain,24
2012-8-25,82,73,64,66,65,62,100,79,58,30.13,30.10,30.06,10,9,2,16,7,22,0.19,6,Rain,350
2012-8-26,87,74,61,72,65,61,100,73,46,30.19,30.13,30.07,10,7,2,9,2,12,0.00,1,,43
2012-8-27,91,82,72,77,74,71,100,78,56,30.12,30.06,30.01,10,9,1,15,4,20,0.40,4,Rain,107
2012-8-28,80,76,72,77,74,72,100,96,91,30.04,29.99,29.95,10,7,0,10,3,14,0.90,6,Fog-Rain,209
2012-8-29,84,79,73,75,74,72,100,85,70,30.01,29.97,29.93,10,9,6,14,3,17,0.06,5,Rain-Thunderstorm,258
2012-8-30,84,78,71,75,73,70,100,87,74,30.16,30.09,29.99,10,8,4,8,2,17,0.00,3,,145
2012-8-31,91,80,69,76,72,69,100,78,56,30.23,30.18,30.10,10,6,0,12,3,21,0.00,3,Fog,238